TimeEDT,TemperatureF,Dew PointF,Humidity,Sea Level PressureIn,VisibilityMPH,Wind Direction,Wind SpeedMPH,Gust SpeedMPH,PrecipitationIn,Events,Conditions,WindDirDegrees,DateUTC
12:53 AM,51.1,48.9,92,29.82,10.0,Calm,Calm,-,N/A,,Clear,0,2013-10-02 04:53:00
1:53 AM,50.0,48.0,93,29.81,10.0,Calm,Calm,-,N/A,,Clear,0,2013-10-02 05:53:00
2:53 AM,48.9,48.0,97,29.81,8.0,Calm,Calm,-,N/A,,Clear,0,2013-10-02 06:53:00
3:53 AM,50.0,46.9,89,29.81,10.0,Calm,Calm,-,N/A,,Clear,0,2013-10-02 07:53:00
4:53 AM,48.9,46.9,93,29.80,10.0,Calm,Calm,-,N/A,,Clear,0,2013-10-02 08:53:00
5:53 AM,51.1,48.9,92,29.81,10.0,Calm,Calm,-,N/A,,Mostly Cloudy,0,2013-10-02 09:53:00
6:53 AM,48.9,46.9,93,29.82,10.0,SSW,3.5,-,N/A,,Partly Cloudy,210,2013-10-02 10:53:00
7:53 AM,55.0,52.0,89,29.81,10.0,Calm,Calm,-,N/A,,Scattered Clouds,0,2013-10-02 11:53:00
8:53 AM,60.1,54.0,80,29.80,10.0,SSW,4.6,-,N/A,,Partly Cloudy,210,2013-10-02 12:53:00
9:53 AM,64.9,55.0,70,29.80,10.0,West,4.6,-,N/A,,Partly Cloudy,260,2013-10-02 13:53:00
10:53 AM,70.0,55.0,59,29.78,10.0,West,6.9,-,N/A,,Partly Cloudy,270,2013-10-02 14:53:00
11:53 AM,73.0,55.0,53,29.76,10.0,West,9.2,17.3,N/A,,Partly Cloudy,270,2013-10-02 15:53:00
12:53 PM,75.0,55.9,51,29.74,10.0,West,13.8,21.9,N/A,,Scattered Clouds,260,2013-10-02 16:53:00
1:53 PM,75.9,55.9,50,29.71,10.0,West,12.7,19.6,N/A,,Scattered Clouds,270,2013-10-02 17:53:00
2:53 PM,75.9,55.0,48,29.70,10.0,West,6.9,16.1,N/A,,Scattered Clouds,270,2013-10-02 18:53:00
3:53 PM,75.9,51.1,42,29.70,10.0,West,10.4,-,N/A,,Scattered Clouds,280,2013-10-02 19:53:00
4:53 PM,75.0,51.1,43,29.71,10.0,WNW,9.2,-,N/A,,Partly Cloudy,290,2013-10-02 20:53:00
5:53 PM,72.0,48.9,44,29.73,10.0,WNW,4.6,-,N/A,,Partly Cloudy,300,2013-10-02 21:53:00
6:53 PM,69.1,46.9,45,29.76,10.0,WNW,3.5,-,N/A,,Clear,290,2013-10-02 22:53:00
7:53 PM,66.9,46.0,47,29.79,10.0,WNW,6.9,-,N/A,,Clear,290,2013-10-02 23:53:00
8:53 PM,66.9,45.0,45,29.80,10.0,West,8.1,-,N/A,,Clear,280,2013-10-03 00:53:00
9:53 PM,64.0,46.0,52,29.82,10.0,West,4.6,-,N/A,,Clear,280,2013-10-03 01:53:00
10:53 PM,64.0,45.0,50,29.83,10.0,West,5.8,-,N/A,,Clear,280,2013-10-03 02:53:00
11:53 PM,63.0,45.0,52,29.85,10.0,West,6.9,-,N/A,,Clear,280,2013-10-03 03:53:00